Location: Amsterdam
(30.7274°N, 84.4357°W)
Time: 19:48:48
(UTC+00:00)

Altair - Pass Details

Date: 07 August 2024
Orbit: 1501 x 1682 km, 47.2° (Epoch: 07 September)

Event Time Altitude Azimuth Distance (km) Brightness Sun altitude
Rises 02:28:48 0° 304° (NW) 4,673 11.5 -23.7°
Reaches altitude 10° 02:31:58 10° 299° (WNW) 3,674 10.5 -24.2°
Maximum altitude 02:40:41 49° 228° (SW) 1,859 7.9 -25.6°
Enters shadow 02:44:30 33° 176° (S) 2,320 8.0 -26.3°
Drops below altitude 10° 02:49:22 10° 156° (SSE) 3,650 - -27.0°
Sets 02:52:31 0° 151° (SSE) 4,641 - -27.5°
